Weather History for Scottsbluff, NE

Change the Weather History Date:

Tuesday, July 2, 2013

  Actual Average Record
Temperature  
Mean Temperature 71 °F 72 °F  
Max Temperature 85 °F 88 °F 108 °F (1990)
Min Temperature 56 °F 57 °F 40 °F (1908)
Degree Days  
Heating Degree Days 0 0  
Month to date heating degree days 0 1  
Since 1 June heating degree days 21 61  
Since 1 July heating degree days 0 1  
Cooling Degree Days 6 8  
Month to date cooling degree days 12 16  
Year to date cooling degree days 261 165  
Since 1 June cooling degree days 207 142  
Growing Degree Days 20 (Base 50)    
Moisture  
Dew Point 48 °F    
Average Humidity 55    
Maximum Humidity 83    
Minimum Humidity 27    
Precipitation  
Precipitation 0.00 in 0.07 in 1.82 in (1956)
Month to date precipitation 0.08 0.13  
Year to date precipitation 6.26 9.30  
Snow  
Snow 0.00 in 0.00 in - ()
Month to date snowfall 0.0 0.0  
Since 1 July snowfall 0.0 0.0  
Snow Depth 0.00 in    
Sea Level Pressure  
Sea Level Pressure 30.07 in    
Wind  
Wind Speed 10 mph (ESE)    
Max Wind Speed 16 mph    
Max Gust Speed 24 mph    
Visibility 10 miles    
Events      
T = Trace of Precipitation, MM = Missing Value Source: NWS Daily Summary

Daily Weather History Graph

Daily Weather History Graph

Search for Another Location

Airport:

Trip Planner

Search our weather history database for the weather conditions in past years. The results will help you decide how hot, cold, wet, or windy it might be!

Date:

Astronomy

Jul. 02, 2013 Rise Set
Actual Time 5:23 AM MDT 8:33 PM MDT
Civil Twilight 4:49 AM MDT 9:07 PM MDT
Nautical Twilight 4:05 AM MDT 9:50 PM MDT
Astronomical Twilight 3:13 AM MDT 10:43 PM MDT
Moon 1:30 AM MDT (7/2) 3:47 PM MDT (7/2)
Length of Visible Light 16h 17m
Length of Day
15h 09m
Waning Crescent, 26% of the Moon is Illuminated
Jul 2
Waning Crescent
Jul 8
New
Jul 15
First Quarter
Jul 22
Full
Jul 29
Last Quarter

Hourly Weather History & Observations

Time (MDT) Temp. Dew Point Humidity Pressure Visibility Wind Dir Wind Speed Gust Speed Precip Events Conditions
12:53 AM 63.0 °F 55.9 °F 78% 30.15 in 10.0 mi ESE 6.9 mph - 0.00 in   Overcast
1:53 AM 61.0 °F 53.1 °F 75% 30.14 in 10.0 mi ESE 8.1 mph - N/A   Scattered Clouds
2:53 AM 60.1 °F 52.0 °F 75% 30.13 in 10.0 mi ESE 9.2 mph - N/A   Mostly Cloudy
3:53 AM 57.0 °F 51.1 °F 81% 30.13 in 10.0 mi ESE 8.1 mph - N/A   Clear
4:53 AM 55.9 °F 50.0 °F 80% 30.14 in 10.0 mi ESE 6.9 mph - N/A   Scattered Clouds
5:53 AM 55.9 °F 48.9 °F 77% 30.14 in 8.0 mi ESE 9.2 mph - N/A   Partly Cloudy
6:53 AM 59.0 °F 48.9 °F 69% 30.15 in 8.0 mi ESE 11.5 mph - N/A   Clear
8:53 AM 66.9 °F 46.9 °F 49% 30.15 in 10.0 mi ESE 12.7 mph - N/A   Clear
9:53 AM 71.1 °F 48.0 °F 44% 30.13 in 10.0 mi ESE 10.4 mph - N/A   Clear
10:53 AM 73.9 °F 48.9 °F 41% 30.13 in 10.0 mi SE 10.4 mph - N/A   Clear
11:53 AM 79.0 °F 46.9 °F 32% 30.10 in 10.0 mi SE 8.1 mph 24.2 mph N/A   Clear
12:53 PM 81.0 °F 46.9 °F 30% 30.07 in 10.0 mi North - - N/A   Clear
1:53 PM 82.0 °F 46.0 °F 28% 30.06 in 10.0 mi SSE 5.8 mph - N/A   Clear
2:53 PM 82.9 °F 46.0 °F 27% 30.04 in 10.0 mi SSE 13.8 mph 17.3 mph N/A   Clear
3:53 PM 84.9 °F 46.0 °F 26% 30.03 in 10.0 mi ESE 11.5 mph 17.3 mph N/A   Clear
4:53 PM 84.9 °F 46.0 °F 26% 30.02 in 10.0 mi ESE 11.5 mph 18.4 mph N/A   Clear
5:53 PM 84.0 °F 46.0 °F 26% 30.01 in 10.0 mi ESE 12.7 mph 16.1 mph N/A   Partly Cloudy
6:53 PM 82.0 °F 46.0 °F 28% 30.00 in 10.0 mi SE 13.8 mph - N/A   Partly Cloudy
7:53 PM 78.1 °F 48.9 °F 36% 30.00 in 10.0 mi ESE 8.1 mph - N/A   Clear
8:53 PM 73.9 °F 46.9 °F 38% 30.00 in 10.0 mi ESE 10.4 mph - N/A   Clear
9:53 PM 69.1 °F 48.0 °F 47% 30.02 in 10.0 mi ESE 9.2 mph - N/A   Clear
10:53 PM 66.0 °F 48.9 °F 54% 30.02 in 10.0 mi ESE 8.1 mph - N/A   Clear
11:53 PM 63.0 °F 48.9 °F 60% 30.02 in 10.0 mi ESE 6.9 mph - N/A   Clear